{"data":{"norad_id":49306,"epoch":"2026-09-20T00:45:59.846688Z","epoch_age_seconds":54777,"freshness":"FRESH","line1":"1 49306U 21090AD  26263.03194267  .00000067  00000+0  13494-3 0  9991","line2":"2 49306  87.9103 286.0727 0001908  98.1363 261.9986 13.19725607238939","mean_motion":13.19725607,"eccentricity":0.0001908,"inclination_deg":87.9103,"raan_deg":286.0727,"arg_perigee_deg":98.1363,"mean_anomaly_deg":261.9986,"bstar":0.00013494,"rev_number":23893,"period_min":109.1135909133,"perigee_km":1184.3250395628,"apogee_km":1187.2114257996,"semimajor_km":7563.9052326812,"source":"CELESTRAK","updated_at":"2026-09-20T09:00:44.674469Z"}}